When you browse on this site, cookies collect data to enhance your experience and personalize the content and advertising you see.
Visit our Privacy Policy to learn more. By continuing to use the site, you agree to this use of cookies and data.
  • In United Kingdom
  • List of Countries
  • For 7 days
  • Water Temperature
  • Satellite Maps
  • Weather Map
  • Weather Widgets
  • user-avatar
    Login

    Hourly Weather Rezekne

    Today, 18 July, Thursday

    Time Temperature Precipitation Wind Pressure Humidity
    00:00 +12°C° 0 mm 1 mps 741 mmHg 95%
    01:00 +12°C° 0 mm 2 mps 741 mmHg 96%
    02:00 +12°C° 0 mm 1 mps 740 mmHg 97%
    03:00 +12°C° 0 mm 2 mps 740 mmHg 97%
    04:00 +12°C° 0 mm 2 mps 740 mmHg 98%
    05:00 +12°C° 0 mm 2 mps 740 mmHg 98%
    06:00 +13°C° 0 mm 2 mps 740 mmHg 97%
    07:00 +13°C° 0 mm 3 mps 740 mmHg 96%
    08:00 +14°C° 0 mm 3 mps 740 mmHg 93%
    09:00 +14°C° 0 mm 3 mps 740 mmHg 91%
    10:00 +15°C° 0 mm 4 mps 740 mmHg 89%
    11:00 +15°C° 0 mm 4 mps 740 mmHg 86%
    12:00 +17°C° 0.5 mm 4 mps 740 mmHg 85%
    13:00 +17°C° 0.5 mm 5 mps 740 mmHg 83%
    14:00 +19°C° 0.5 mm 6 mps 739 mmHg 82%
    15:00 +19°C° 0.6 mm 5 mps 740 mmHg 83%
    16:00 +19°C° 0.6 mm 5 mps 740 mmHg 83%
    17:00 +19°C° 0.6 mm 5 mps 740 mmHg 84%
    18:00 +18°C° 0.1 mm 4 mps 740 mmHg 85%
    19:00 +17°C° 0.1 mm 4 mps 740 mmHg 86%
    20:00 +16°C° 0.1 mm 3 mps 740 mmHg 87%
    21:00 +16°C° 0 mm 3 mps 740 mmHg 88%
    22:00 +14°C° 0 mm 3 mps 741 mmHg 90%
    23:00 +13°C° 0 mm 3 mps 741 mmHg 91%

    Tomorrow, 19 July, Friday

    Time Temperature Precipitation Wind Pressure Humidity
    00:00 +13°C° 0 mm 3 mps 741 mmHg 91%
    01:00 +12°C° 0 mm 3 mps 741 mmHg 92%
    02:00 +12°C° 0 mm 3 mps 742 mmHg 93%
    03:00 +12°C° 0 mm 3 mps 742 mmHg 93%
    04:00 +12°C° 0 mm 3 mps 742 mmHg 93%
    05:00 +11°C° 0 mm 3 mps 742 mmHg 93%
    06:00 +13°C° 0 mm 3 mps 742 mmHg 88%
    07:00 +16°C° 0 mm 3 mps 742 mmHg 83%
    08:00 +17°C° 0 mm 4 mps 743 mmHg 77%
    09:00 +19°C° 0.1 mm 4 mps 743 mmHg 69%
    10:00 +20°C° 0.1 mm 5 mps 743 mmHg 61%
    11:00 +22°C° 0.1 mm 5 mps 743 mmHg 52%
    12:00 +22°C° 0 mm 5 mps 743 mmHg 53%
    13:00 +23°C° 0 mm 5 mps 743 mmHg 53%
    14:00 +23°C° 0 mm 4 mps 743 mmHg 53%
    15:00 +23°C° 0 mm 4 mps 743 mmHg 55%
    16:00 +22°C° 0 mm 4 mps 743 mmHg 57%
    17:00 +22°C° 0 mm 4 mps 744 mmHg 59%
    18:00 +21°C° 0 mm 4 mps 744 mmHg 64%
    19:00 +19°C° 0 mm 4 mps 744 mmHg 68%
    20:00 +17°C° 0 mm 4 mps 744 mmHg 73%
    21:00 +16°C° 0 mm 3 mps 744 mmHg 76%
    22:00 +14°C° 0 mm 3 mps 745 mmHg 79%
    23:00 +13°C° 0 mm 3 mps 745 mmHg 81%

    Day after tomorrow, 20 July, Saturday

    Time Temperature Precipitation Wind Pressure Humidity
    00:00 +12°C° 0 mm 3 mps 745 mmHg 85%
    01:00 +12°C° 0 mm 2 mps 746 mmHg 88%
    02:00 +10°C° 0 mm 2 mps 746 mmHg 91%
    03:00 +10°C° 0 mm 2 mps 746 mmHg 91%
    04:00 +10°C° 0 mm 2 mps 746 mmHg 90%
    05:00 +10°C° 0 mm 3 mps 747 mmHg 90%
    06:00 +12°C° 0 mm 3 mps 747 mmHg 84%
    07:00 +14°C° 0 mm 3 mps 747 mmHg 78%
    08:00 +17°C° 0 mm 3 mps 747 mmHg 72%
    09:00 +19°C° 0 mm 3 mps 747 mmHg 67%
    10:00 +21°C° 0 mm 3 mps 748 mmHg 62%
    11:00 +22°C° 0 mm 4 mps 748 mmHg 56%
    12:00 +23°C° 0 mm 4 mps 748 mmHg 54%
    13:00 +25°C° 0 mm 4 mps 748 mmHg 52%
    14:00 +25°C° 0 mm 4 mps 748 mmHg 49%
    15:00 +25°C° 0 mm 3 mps 748 mmHg 52%
    16:00 +25°C° 0 mm 3 mps 748 mmHg 54%
    17:00 +25°C° 0 mm 3 mps 748 mmHg 57%
    18:00 +22°C° 0 mm 3 mps 749 mmHg 64%
    19:00 +21°C° 0 mm 2 mps 749 mmHg 71%
    20:00 +19°C° 0 mm 2 mps 749 mmHg 78%
    21:00 +19°C° 0 mm 1 mps 749 mmHg 82%
    22:00 +16°C° 0 mm 1 mps 749 mmHg 85%
    23:00 +14°C° 0 mm 0 mps 750 mmHg 89%

    21 July, Sunday

    Time Temperature Precipitation Wind Pressure Humidity
    00:00 +14°C° 0 mm 0 mps 750 mmHg 89%
    01:00 +13°C° 0 mm 0 mps 750 mmHg 90%
    02:00 +13°C° 0 mm 0 mps 750 mmHg 91%
    03:00 +13°C° 0 mm 0 mps 750 mmHg 90%
    04:00 +13°C° 0 mm 0 mps 750 mmHg 89%
    05:00 +13°C° 0 mm 0 mps 750 mmHg 89%
    06:00 +15°C° 0 mm 0 mps 750 mmHg 82%
    07:00 +19°C° 0 mm 1 mps 750 mmHg 76%
    08:00 +21°C° 0 mm 1 mps 750 mmHg 70%
    09:00 +23°C° 0 mm 1 mps 750 mmHg 64%
    10:00 +24°C° 0 mm 1 mps 750 mmHg 58%
    11:00 +25°C° 0 mm 2 mps 750 mmHg 52%
    12:00 +26°C° 0 mm 2 mps 749 mmHg 50%
    13:00 +26°C° 0 mm 2 mps 749 mmHg 48%
    14:00 +27°C° 0 mm 2 mps 749 mmHg 46%
    15:00 +27°C° 0.1 mm 2 mps 748 mmHg 51%
    16:00 +26°C° 0.1 mm 3 mps 748 mmHg 56%
    17:00 +26°C° 0.1 mm 3 mps 748 mmHg 62%
    18:00 +24°C° 0.5 mm 2 mps 748 mmHg 70%
    19:00 +23°C° 0.5 mm 2 mps 747 mmHg 78%
    20:00 +20°C° 0.5 mm 2 mps 747 mmHg 86%
    21:00 +19°C° 0.3 mm 2 mps 747 mmHg 89%
    22:00 +18°C° 0.3 mm 2 mps 747 mmHg 91%
    23:00 +17°C° 0.3 mm 3 mps 747 mmHg 93%

    22 July, Monday

    Time Temperature Precipitation Wind Pressure Humidity
    00:00 +17°C° 0.3 mm 2 mps 747 mmHg 94%
    01:00 +17°C° 0.3 mm 2 mps 746 mmHg 95%
    02:00 +17°C° 0.3 mm 2 mps 746 mmHg 96%
    03:00 +17°C° 2 mm 2 mps 746 mmHg 97%
    04:00 +17°C° 2 mm 2 mps 746 mmHg 97%
    05:00 +17°C° 2 mm 2 mps 746 mmHg 98%
    06:00 +17°C° 3.1 mm 2 mps 746 mmHg 98%
    07:00 +17°C° 3.1 mm 2 mps 746 mmHg 97%
    08:00 +17°C° 3.1 mm 2 mps 746 mmHg 97%
    09:00 +18°C° 0.6 mm 2 mps 746 mmHg 96%
    10:00 +19°C° 0.6 mm 1 mps 746 mmHg 95%
    11:00 +19°C° 0.6 mm 1 mps 746 mmHg 95%
    12:00 +19°C° 0.5 mm 1 mps 746 mmHg 93%
    13:00 +20°C° 0.5 mm 1 mps 746 mmHg 92%
    14:00 +20°C° 0.5 mm 1 mps 746 mmHg 91%
    15:00 +21°C° 1.1 mm 1 mps 746 mmHg 89%
    16:00 +21°C° 1.1 mm 1 mps 746 mmHg 87%
    17:00 +21°C° 1.1 mm 2 mps 746 mmHg 86%
    18:00 +21°C° 0.7 mm 1 mps 746 mmHg 88%
    19:00 +20°C° 0.7 mm 1 mps 746 mmHg 90%
    20:00 +19°C° 0.7 mm 1 mps 746 mmHg 93%
    21:00 +18°C° 0.3 mm 1 mps 747 mmHg 94%
    22:00 +18°C° 0.3 mm 1 mps 747 mmHg 95%
    23:00 +16°C° 0.3 mm 1 mps 747 mmHg 97%

    23 July, Tuesday

    Time Temperature Precipitation Wind Pressure Humidity
    00:00 +16°C° 0.2 mm 1 mps 747 mmHg 97%
    01:00 +15°C° 0.2 mm 2 mps 747 mmHg 98%
    02:00 +15°C° 0.2 mm 2 mps 747 mmHg 98%
    03:00 +15°C° 0 mm 2 mps 748 mmHg 98%
    04:00 +15°C° 0 mm 1 mps 748 mmHg 98%
    05:00 +15°C° 0 mm 1 mps 748 mmHg 98%
    06:00 +16°C° 0 mm 1 mps 748 mmHg 96%
    07:00 +17°C° 0 mm 2 mps 748 mmHg 95%
    08:00 +18°C° 0 mm 2 mps 748 mmHg 93%
    09:00 +18°C° 0 mm 2 mps 748 mmHg 88%
    10:00 +19°C° 0 mm 2 mps 748 mmHg 84%
    11:00 +20°C° 0 mm 2 mps 748 mmHg 79%
    12:00 +21°C° 0 mm 2 mps 748 mmHg 76%
    13:00 +23°C° 0 mm 2 mps 748 mmHg 72%
    14:00 +23°C° 0 mm 2 mps 748 mmHg 69%
    15:00 +23°C° 0.2 mm 2 mps 748 mmHg 70%
    16:00 +23°C° 0.2 mm 2 mps 748 mmHg 72%
    17:00 +23°C° 0.2 mm 2 mps 748 mmHg 74%
    18:00 +21°C° 0.2 mm 2 mps 748 mmHg 79%
    19:00 +20°C° 0.2 mm 2 mps 748 mmHg 84%
    20:00 +18°C° 0.2 mm 2 mps 748 mmHg 89%
    21:00 +17°C° 0 mm 2 mps 748 mmHg 91%
    22:00 +16°C° 0 mm 2 mps 749 mmHg 92%
    23:00 +15°C° 0 mm 2 mps 749 mmHg 94%
    Show more